Location: Richmond
(37.5536°N, 77.4606°W)
Time: 12:34:20
(UTC-04:00)

ISS - Visible Passes

Search period start: 24 April 2018 00:00
Search period end: 04 May 2018 00:00
Orbit: 403 x 406 km, 51.6° (Epoch: 25 April)

Date Brightness Start Highest point End Pass type
(mag) Time Alt. Az. Time Alt. Az. Time Alt. Az.
29 Apr -1.6 05:37:17 10° S 05:39:47 21° SE 05:42:18 10° E visible
30 Apr -0.9 04:47:18 10° SE 04:47:41 10° SE 04:48:04 10° ESE visible
01 May -3.3 05:28:18 11° SW 05:31:25 56° SE 05:34:37 10° ENE visible
02 May -2.2 04:38:12 22° SSE 04:39:11 26° SE 04:41:58 10° ENE visible
03 May -0.9 03:48:00 12° ESE 03:48:00 12° ESE 03:48:38 10° E visible
03 May -3.5 05:20:39 15° WSW 05:23:08 53° NW 05:26:21 10° NE visible
